Terminal Aerodrome Forecast
Issued by NWS

Home | Current Version | Previous Version | Text Only | Print | Product List | Glossary On
Versions: 1 2 3 4 5 6 7 8 9 10 11 12 13 14 15
000
FTUS45 KRIW 202300
TAFPNA
TAF
KPNA 202329Z 2100/2124 32012KT P6SM SCT250
     FM210100 30007KT P6SM SCT250
     FM211400 VRB04KT P6SM SCT250
     FM211900 28008KT P6SM SCT080
      AMD LTD TO CLD VIS AND WIND=

USA.gov is the U.S. government's official web portal to all federal, state and local government web resources and services.